This demonstration page uses our WeatherBlox Daily Observations layout. Learn more.

41.55636, -103.73856

Hourly Observations for July 2, 2020

Temp ( °F °C ) Dew Point ( °F °C ) Humidity (%) Winds ( mph kmh ) Pressure ( in mb ) Visibility ( mi km ) Precip ( " mm )
12:58 am 00:58 Clear 84 28.8 28 -2 13 13 SSE 21 33 29.83 1010 10 16.0934 0 0
1:58 am 01:58 Clear 80 26.8 30 -1.3 16 16 SSE 22 35 29.83 1010 10 16.0934 0 0
2:58 am 02:58 Clear 76 24.2 32 -0.2 20 20 SSE 23 37 29.83 1010 10 16.0934 0 0
3:58 am 03:58 Clear 73 22.8 36 2.1 26 26 SSE 28 44 29.84 1011 10 16.0934 0 0
4:58 am 04:58 Clear 72 22.2 47 8.4 41 41 SSE 30 48 29.85 1011 10 16.0934 0 0
5:58 am 05:58 Clear 71 21.4 48 9.1 46 46 S 31 50 29.85 1011 10 16.0934 0 0
6:58 am 06:58 Clear 69 20.3 50 10.2 52 52 S 30 48 29.86 1011 10 16.0934 0 0
7:58 am 07:58 Clear 67 19.3 54 12.2 64 64 S 28 44 29.86 1011 10 16.0934 0 0
8:58 am 08:58 Mostly Cloudy 65 18.6 57 14 75 75 S 23 37 29.87 1011 10 16.0934 0 0
9:58 am 09:58 Mostly Cloudy 67 19.6 62 16.6 83 83 S 25 41 29.88 1012 10 16.0934 0 0
10:58 am 10:58 Mostly Cloudy 67 19.6 62 16.9 85 85 S 23 37 29.89 1012 10 16.0934 0 0
11:59 am 11:59 Mostly Sunny 67 19.7 62 16.8 83 83 S 24 39 29.89 1012 10 16.0934 0 0
12:58 pm 12:58 Sunny 69 20.7 63 17 79 79 S 36 57 29.87 1011 10 16.0934 0 0
1:58 pm 13:58 Sunny 73 22.5 62 16.6 69 69 S 37 59 29.87 1011 10 16.0934 0 0
2:58 pm 14:58 Sunny 77 24.8 61 15.9 58 58 SSW 30 48 29.9 1012 10 16.0934 0 0
3:58 pm 15:58 Sunny 80 26.4 61 16.2 54 54 S 14 22 29.93 1013 10 16.0934 0 0
4:58 pm 16:58 Sunny 84 28.9 57 13.9 40 40 S 16 26 29.91 1013 10 16.0934 0 0
5:58 pm 17:58 Sunny 88 31 52 11.1 29 29 S 17 28 29.89 1012 10 16.0934 0 0
6:58 pm 18:58 Sunny 90 32.4 50 10 25 25 S 17 28 29.88 1012 10 16.0934 0 0
7:58 pm 19:58 Mostly Sunny 94 34.2 30 -1.2 10 10 SW 12 19 29.85 1011 10 16.0934 0 0
8:58 pm 20:58 Mostly Sunny 94 34.4 34 1 12 12 SSW 13 20 29.84 1011 10 16.0934 0 0
9:58 pm 21:58 Sunny 95 35.1 27 -2.7 9 9 SW 15 24 29.83 1010 10 16.0934 0 0
10:59 pm 22:59 Mostly Sunny 89 31.9 46 7.9 22 22 SSE 28 44 29.82 1010 10 16.0934 0 0
11:58 pm 23:58 Sunny 87 30.6 41 4.9 20 20 ESE 18 30 29.83 1010 10 16.0934 0 0

Powered by AerisWeather